User: anonymous   Login
Location: Unspecified
(0.0000°N, 0.0000°E)
Time: 22:48:07
(UTC+02:00)
Language:

Centaur D-1AR AC-41 - Orbit

View from above orbital plane
View from above orbital plane
View from above satellite
View from above satellite

Ground track
Ground track

The orbit data is extracted from the following two-line orbital elements,

1 10976U 78068B   15105.52684206 -.00000063  00000-0  17933-3 0  9993
2 10976 021.3017 115.7857 7190719 132.3553 008.7495 02.22295096298592
Epoch (UTC): 15 April 2015 12:38:39
Eccentricity: 0.7190719
inclination: 21.3017°
perigee height: 589 km
apogee height: 36254 km
right ascension of ascending node: 115.7857°
argument of perigee: 132.3553°
revolutions per day: 2.22295096
mean anomaly at epoch: 8.7495°
orbit number at epoch: 29859

The dashed part of the orbit path shows where the satellite is in the earth's shadow,  

DLR